Time,TemperatureF,DewpointF,PressureIn,WindDirection,WindDirectionDegrees,WindSpeedMPH,WindSpeedGustMPH,Humidity,HourlyPrecipIn,Conditions,Clouds,dailyrainin,SoftwareType,DateUTC
2013-02-01 00:02:00,8.0,4.0,29.88,NW,317,0.0,0.0,89,0.00,,,0.00,TxWx,2013-02-01 06:02:00,
2013-02-01 00:07:00,8.1,5.0,29.88,North,350,0.0,0.0,90,0.00,,,0.00,TxWx,2013-02-01 06:07:00,
2013-02-01 00:12:00,7.9,4.0,29.88,NE,46,0.0,0.0,89,0.00,,,0.00,TxWx,2013-02-01 06:12:00,
2013-02-01 00:17:00,7.9,5.0,29.89,North,350,0.0,0.0,90,0.00,,,0.00,TxWx,2013-02-01 06:17:00,
2013-02-01 00:22:00,8.0,5.0,29.89,North,350,0.0,0.0,90,0.00,,,0.00,TxWx,2013-02-01 06:22:00,
2013-02-01 00:27:00,8.0,4.0,29.90,North,350,0.0,0.0,89,0.00,,,0.00,TxWx,2013-02-01 06:27:00,
2013-02-01 00:33:00,7.9,4.0,29.90,NW,317,0.0,0.0,89,0.00,,,0.00,TxWx,2013-02-01 06:33:00,
2013-02-01 00:38:00,7.8,4.0,29.90,NW,315,0.0,0.0,89,0.00,,,0.00,TxWx,2013-02-01 06:38:00,
2013-02-01 00:43:00,7.6,4.0,29.90,NW,318,0.0,0.0,89,0.00,,,0.00,TxWx,2013-02-01 06:43:00,
2013-02-01 00:48:00,7.4,3.0,29.90,NW,315,0.0,0.0,89,0.00,,,0.00,TxWx,2013-02-01 06:48:00,
2013-02-01 00:53:00,7.2,3.0,29.91,NW,318,0.0,0.0,89,0.00,,,0.00,TxWx,2013-02-01 06:53:00,
2013-02-01 00:58:00,7.1,3.0,29.91,North,350,0.0,0.0,88,0.00,,,0.00,TxWx,2013-02-01 06:58:00,
2013-02-01 01:04:00,7.0,3.0,29.92,ENE,57,0.0,0.0,89,0.00,,,0.00,TxWx,2013-02-01 07:04:00,
2013-02-01 01:09:00,6.9,3.0,29.92,North,350,0.0,0.0,89,0.00,,,0.00,TxWx,2013-02-01 07:09:00,
2013-02-01 01:14:00,6.8,3.0,29.92,North,350,0.0,0.0,89,0.00,,,0.00,TxWx,2013-02-01 07:14:00,
2013-02-01 01:19:00,6.5,3.0,29.92,North,350,0.0,0.0,88,0.00,,,0.00,TxWx,2013-02-01 07:19:00,
2013-02-01 01:24:00,6.3,2.0,29.93,North,350,0.0,0.0,88,0.00,,,0.00,TxWx,2013-02-01 07:24:00,
2013-02-01 01:30:00,6.3,2.0,29.93,NW,316,0.0,0.0,89,0.00,,,0.00,TxWx,2013-02-01 07:30:00,
2013-02-01 01:35:00,6.3,2.0,29.93,NE,52,0.0,0.0,89,0.00,,,0.00,TxWx,2013-02-01 07:35:00,
2013-02-01 01:40:00,5.7,2.0,29.94,North,350,0.0,0.0,89,0.00,,,0.00,TxWx,2013-02-01 07:40:00,
2013-02-01 01:45:00,5.4,1.0,29.94,North,349,0.0,0.0,89,0.00,,,0.00,TxWx,2013-02-01 07:45:00,
2013-02-01 01:50:00,5.4,1.0,29.94,North,350,0.0,0.0,89,0.00,,,0.00,TxWx,2013-02-01 07:50:00,
2013-02-01 01:55:00,5.3,1.0,29.95,North,350,0.0,0.0,89,0.00,,,0.00,TxWx,2013-02-01 07:55:00,
2013-02-01 02:00:00,5.3,1.0,29.95,North,349,0.0,0.0,89,0.00,,,0.00,TxWx,2013-02-01 08:00:00,
2013-02-01 02:06:00,5.0,1.0,29.95,North,350,0.0,0.0,89,0.00,,,0.00,TxWx,2013-02-01 08:06:00,
2013-02-01 02:11:00,5.0,1.0,29.95,North,350,0.0,0.0,88,0.00,,,0.00,TxWx,2013-02-01 08:11:00,
2013-02-01 02:16:00,4.9,1.0,29.95,North,350,0.0,0.0,88,0.00,,,0.00,TxWx,2013-02-01 08:16:00,
2013-02-01 02:21:00,4.7,1.0,29.96,North,350,0.0,0.0,88,0.00,,,0.00,TxWx,2013-02-01 08:21:00,
2013-02-01 02:26:00,4.6,1.0,29.96,North,350,0.0,0.0,88,0.00,,,0.00,TxWx,2013-02-01 08:26:00,
2013-02-01 02:32:00,4.3,0.0,29.96,NE,50,0.0,0.0,88,0.00,,,0.00,TxWx,2013-02-01 08:32:00,
2013-02-01 02:37:00,4.2,0.0,29.97,NW,314,0.0,0.0,87,0.00,,,0.00,TxWx,2013-02-01 08:37:00,
2013-02-01 02:42:00,4.3,0.0,29.97,North,349,0.0,0.0,88,0.00,,,0.00,TxWx,2013-02-01 08:42:00,
2013-02-01 02:47:00,4.3,0.0,29.98,North,349,0.0,0.0,88,0.00,,,0.00,TxWx,2013-02-01 08:47:00,
2013-02-01 02:52:00,4.2,0.0,29.98,North,349,0.0,0.0,88,0.00,,,0.00,TxWx,2013-02-01 08:52:00,
2013-02-01 02:58:00,4.1,0.0,29.98,North,349,0.0,0.0,88,0.00,,,0.00,TxWx,2013-02-01 08:58:00,
2013-02-01 03:03:00,4.0,0.0,29.98,North,349,0.0,0.0,87,0.00,,,0.00,TxWx,2013-02-01 09:03:00,
2013-02-01 03:08:00,3.8,0.0,29.99,North,349,0.0,0.0,88,0.00,,,0.00,TxWx,2013-02-01 09:08:00,
2013-02-01 03:13:00,3.8,0.0,29.99,North,349,0.0,0.0,88,0.00,,,0.00,TxWx,2013-02-01 09:13:00,
2013-02-01 03:19:00,3.7,0.0,29.99,NNE,29,0.0,0.0,88,0.00,,,0.00,TxWx,2013-02-01 09:19:00,
2013-02-01 03:24:00,3.5,0.0,30.00,North,350,0.0,0.0,87,0.00,,,0.00,TxWx,2013-02-01 09:24:00,
2013-02-01 03:29:00,3.4,-1.0,30.00,North,350,0.0,0.0,87,0.00,,,0.00,TxWx,2013-02-01 09:29:00,
2013-02-01 03:34:00,3.3,-1.0,30.00,North,350,0.0,0.0,86,0.00,,,0.00,TxWx,2013-02-01 09:34:00,
2013-02-01 03:40:00,3.3,-1.0,30.00,North,352,0.0,0.0,87,0.00,,,0.00,TxWx,2013-02-01 09:40:00,
2013-02-01 03:45:00,3.3,-1.0,30.00,North,350,0.0,0.0,87,0.00,,,0.00,TxWx,2013-02-01 09:45:00,
2013-02-01 03:50:00,3.3,-1.0,30.01,North,350,0.0,0.0,86,0.00,,,0.00,TxWx,2013-02-01 09:50:00,
2013-02-01 03:55:00,3.2,-1.0,30.01,North,350,0.0,0.0,86,0.00,,,0.00,TxWx,2013-02-01 09:55:00,
2013-02-01 04:01:00,3.3,-1.0,30.01,North,350,0.0,0.0,87,0.00,,,0.00,TxWx,2013-02-01 10:01:00,
2013-02-01 04:06:00,3.1,-1.0,30.02,North,350,0.0,0.0,87,0.00,,,0.00,TxWx,2013-02-01 10:06:00,
2013-02-01 04:11:00,3.1,-1.0,30.02,NW,313,0.0,0.0,87,0.00,,,0.00,TxWx,2013-02-01 10:11:00,
2013-02-01 04:16:00,3.0,-1.0,30.02,North,350,0.0,0.0,87,0.00,,,0.00,TxWx,2013-02-01 10:16:00,
2013-02-01 04:21:00,2.9,-1.0,30.03,North,350,0.0,0.0,87,0.00,,,0.00,TxWx,2013-02-01 10:21:00,
2013-02-01 04:26:00,2.8,-1.0,30.03,North,352,0.0,0.0,87,0.00,,,0.00,TxWx,2013-02-01 10:26:00,
2013-02-01 04:32:00,2.7,-1.0,30.03,NE,54,0.0,0.0,86,0.00,,,0.00,TxWx,2013-02-01 10:32:00,
2013-02-01 04:37:00,2.7,-1.0,30.03,NW,313,0.0,0.0,86,0.00,,,0.00,TxWx,2013-02-01 10:37:00,
2013-02-01 04:42:00,2.5,-2.0,30.03,North,350,0.0,0.0,86,0.00,,,0.00,TxWx,2013-02-01 10:42:00,
2013-02-01 04:47:00,2.6,-1.0,30.04,NW,313,0.0,0.0,87,0.00,,,0.00,TxWx,2013-02-01 10:47:00,
2013-02-01 04:52:00,2.4,-2.0,30.04,North,351,0.0,0.0,86,0.00,,,0.00,TxWx,2013-02-01 10:52:00,
2013-02-01 04:57:00,2.4,-3.0,30.04,NE,40,0.0,0.0,85,0.00,,,0.00,TxWx,2013-02-01 10:57:00,
2013-02-01 05:03:00,2.2,-2.0,30.04,NW,313,0.0,0.0,85,0.00,,,0.00,TxWx,2013-02-01 11:03:00,
2013-02-01 05:08:00,2.2,-2.0,30.04,North,351,0.0,0.0,85,0.00,,,0.00,TxWx,2013-02-01 11:08:00,
2013-02-01 05:13:00,2.3,-3.0,30.05,ENE,58,0.0,0.0,85,0.00,,,0.00,TxWx,2013-02-01 11:13:00,
2013-02-01 05:18:00,2.3,-3.0,30.05,NE,55,0.0,0.0,84,0.00,,,0.00,TxWx,2013-02-01 11:18:00,
2013-02-01 05:23:00,1.9,-3.0,30.05,NE,52,0.0,0.0,84,0.00,,,0.00,TxWx,2013-02-01 11:23:00,
2013-02-01 05:28:00,1.9,-3.0,30.05,North,351,0.0,0.0,84,0.00,,,0.00,TxWx,2013-02-01 11:28:00,
2013-02-01 05:34:00,1.9,-2.0,30.05,NW,313,0.0,0.0,85,0.00,,,0.00,TxWx,2013-02-01 11:34:00,
2013-02-01 05:39:00,1.8,-3.0,30.05,North,351,0.0,0.0,85,0.00,,,0.00,TxWx,2013-02-01 11:39:00,
2013-02-01 05:44:00,1.8,-3.0,30.04,North,351,0.0,0.0,83,0.00,,,0.00,TxWx,2013-02-01 11:44:00,
2013-02-01 05:49:00,1.7,-3.0,30.04,NNE,14,0.0,0.0,82,0.00,,,0.00,TxWx,2013-02-01 11:49:00,
2013-02-01 05:54:00,1.7,-3.0,30.04,North,351,0.0,0.0,82,0.00,,,0.00,TxWx,2013-02-01 11:54:00,
2013-02-01 05:59:00,1.6,-3.0,30.05,North,351,0.0,0.0,82,0.00,,,0.00,TxWx,2013-02-01 11:59:00,
2013-02-01 06:05:00,1.5,-3.0,30.04,North,351,0.0,0.0,82,0.00,,,0.00,TxWx,2013-02-01 12:05:00,
2013-02-01 06:10:00,1.5,-4.0,30.04,NW,314,0.0,0.0,81,0.00,,,0.00,TxWx,2013-02-01 12:10:00,
2013-02-01 06:15:00,1.4,-4.0,30.05,North,351,0.0,0.0,81,0.00,,,0.00,TxWx,2013-02-01 12:15:00,
2013-02-01 06:20:00,1.3,-5.0,30.04,NW,318,0.0,0.0,80,0.00,,,0.00,TxWx,2013-02-01 12:20:00,
2013-02-01 06:25:00,1.3,-5.0,30.05,North,351,0.0,0.0,81,0.00,,,0.00,TxWx,2013-02-01 12:25:00,
2013-02-01 06:30:00,1.2,-5.0,30.05,North,351,0.0,0.0,81,0.00,,,0.00,TxWx,2013-02-01 12:30:00,
2013-02-01 06:36:00,1.3,-5.0,30.05,North,351,0.0,0.0,80,0.00,,,0.00,TxWx,2013-02-01 12:36:00,
2013-02-01 06:41:00,1.2,-5.0,30.05,North,351,0.0,0.0,81,0.00,,,0.00,TxWx,2013-02-01 12:41:00,
2013-02-01 06:46:00,1.1,-5.0,30.05,North,351,0.0,0.0,81,0.00,,,0.00,TxWx,2013-02-01 12:46:00,
2013-02-01 06:51:00,1.1,-5.0,30.05,North,351,0.0,0.0,81,0.00,,,0.00,TxWx,2013-02-01 12:51:00,
2013-02-01 06:56:00,1.1,-4.0,30.05,North,351,0.0,0.0,81,0.00,,,0.00,TxWx,2013-02-01 12:56:00,
2013-02-01 07:01:00,1.1,-4.0,30.05,North,351,0.0,0.0,81,0.00,,,0.00,TxWx,2013-02-01 13:01:00,
2013-02-01 07:07:00,1.0,-4.0,30.06,NNE,19,0.0,0.0,81,0.00,,,0.00,TxWx,2013-02-01 13:07:00,
2013-02-01 07:12:00,1.0,-4.0,30.06,North,350,0.0,0.0,81,0.00,,,0.00,TxWx,2013-02-01 13:12:00,
2013-02-01 07:17:00,0.9,-4.0,30.06,North,351,0.0,0.0,81,0.00,,,0.00,TxWx,2013-02-01 13:17:00,
2013-02-01 07:22:00,1.1,-4.0,30.06,North,351,0.0,0.0,82,0.00,,,0.00,TxWx,2013-02-01 13:22:00,
2013-02-01 07:27:00,1.0,-4.0,30.06,North,351,0.0,0.0,82,0.00,,,0.00,TxWx,2013-02-01 13:27:00,
2013-02-01 07:33:00,0.9,-4.0,30.07,North,351,0.0,0.0,81,0.00,,,0.00,TxWx,2013-02-01 13:33:00,
2013-02-01 07:38:00,1.0,-4.0,30.07,North,351,0.0,0.0,81,0.00,,,0.00,TxWx,2013-02-01 13:38:00,
2013-02-01 07:43:00,0.8,-4.0,30.07,North,351,0.0,0.0,81,0.00,,,0.00,TxWx,2013-02-01 13:43:00,
2013-02-01 07:48:00,0.7,-5.0,30.07,North,351,0.0,0.0,81,0.00,,,0.00,TxWx,2013-02-01 13:48:00,
2013-02-01 07:53:00,0.9,-5.0,30.07,North,351,0.0,0.0,81,0.00,,,0.00,TxWx,2013-02-01 13:53:00,
2013-02-01 07:58:00,1.1,-5.0,30.07,North,351,0.0,0.0,81,0.00,,,0.00,TxWx,2013-02-01 13:58:00,
2013-02-01 08:03:00,1.0,-5.0,30.08,North,352,0.0,0.0,81,0.00,,,0.00,TxWx,2013-02-01 14:03:00,
2013-02-01 08:08:00,1.1,-4.0,30.07,North,352,0.0,0.0,81,0.00,,,0.00,TxWx,2013-02-01 14:08:00,
2013-02-01 08:14:00,1.4,-4.0,30.08,North,352,0.0,0.0,81,0.00,,,0.00,TxWx,2013-02-01 14:14:00,
2013-02-01 08:19:00,1.6,-3.0,30.07,North,351,0.0,0.0,81,0.00,,,0.00,TxWx,2013-02-01 14:19:00,
2013-02-01 08:24:00,1.4,-4.0,30.08,North,351,0.0,0.0,81,0.00,,,0.00,TxWx,2013-02-01 14:24:00,
2013-02-01 08:29:00,1.8,-4.0,30.08,North,351,0.0,0.0,80,0.00,,,0.00,TxWx,2013-02-01 14:29:00,
2013-02-01 08:35:00,1.9,-4.0,30.09,North,351,0.0,0.0,81,0.00,,,0.00,TxWx,2013-02-01 14:35:00,
2013-02-01 08:40:00,1.6,-4.0,30.08,North,352,0.0,0.0,79,0.00,,,0.00,TxWx,2013-02-01 14:40:00,
2013-02-01 08:45:00,1.7,-4.0,30.09,North,352,0.0,0.0,79,0.00,,,0.00,TxWx,2013-02-01 14:45:00,
2013-02-01 08:51:00,2.1,-4.0,30.09,NW,313,0.0,0.0,79,0.00,,,0.00,TxWx,2013-02-01 14:51:00,
2013-02-01 08:56:00,2.2,-4.0,30.09,North,352,0.0,0.0,79,0.00,,,0.00,TxWx,2013-02-01 14:56:00,
2013-02-01 09:01:00,2.9,-3.0,30.09,North,351,0.0,0.0,80,0.00,,,0.00,TxWx,2013-02-01 15:01:00,
2013-02-01 09:06:00,2.7,-4.0,30.09,North,351,0.0,0.0,77,0.00,,,0.00,TxWx,2013-02-01 15:06:00,
2013-02-01 09:11:00,3.2,-3.0,30.10,North,351,0.0,0.0,78,0.00,,,0.00,TxWx,2013-02-01 15:11:00,
2013-02-01 09:16:00,3.1,-4.0,30.09,North,352,0.0,0.0,76,0.00,,,0.00,TxWx,2013-02-01 15:16:00,
2013-02-01 09:21:00,2.9,-4.0,30.10,North,351,0.0,0.0,76,0.00,,,0.00,TxWx,2013-02-01 15:21:00,
2013-02-01 09:26:00,2.8,-4.0,30.10,North,351,0.0,0.0,75,0.00,,,0.00,TxWx,2013-02-01 15:26:00,
2013-02-01 09:32:00,3.5,-3.0,30.10,North,351,0.0,0.0,76,0.00,,,0.00,TxWx,2013-02-01 15:32:00,
2013-02-01 09:37:00,3.6,-3.0,30.10,North,351,0.0,0.0,75,0.00,,,0.00,TxWx,2013-02-01 15:37:00,
2013-02-01 09:42:00,4.0,-3.0,30.10,North,351,0.0,0.0,75,0.00,,,0.00,TxWx,2013-02-01 15:42:00,
2013-02-01 09:47:00,3.9,-4.0,30.10,North,351,0.0,0.0,73,0.00,,,0.00,TxWx,2013-02-01 15:47:00,
2013-02-01 09:52:00,4.1,-4.0,30.10,North,352,0.0,0.0,74,0.00,,,0.00,TxWx,2013-02-01 15:52:00,
2013-02-01 09:58:00,4.1,-4.0,30.10,North,352,0.0,0.0,73,0.00,,,0.00,TxWx,2013-02-01 15:58:00,
2013-02-01 10:03:00,4.4,-4.0,30.10,North,352,0.0,0.0,72,0.00,,,0.00,TxWx,2013-02-01 16:03:00,
2013-02-01 10:08:00,5.0,-3.0,30.11,NE,55,0.0,0.0,72,0.00,,,0.00,TxWx,2013-02-01 16:08:00,
2013-02-01 10:13:00,4.6,-3.0,30.11,North,352,0.0,0.0,71,0.00,,,0.00,TxWx,2013-02-01 16:13:00,
2013-02-01 10:19:00,4.8,-3.0,30.11,North,352,0.0,0.0,71,0.00,,,0.00,TxWx,2013-02-01 16:19:00,
2013-02-01 10:24:00,5.1,-3.0,30.11,North,352,0.0,0.0,71,0.00,,,0.00,TxWx,2013-02-01 16:24:00,
2013-02-01 10:29:00,5.6,-3.0,30.11,North,352,0.0,0.0,70,0.00,,,0.00,TxWx,2013-02-01 16:29:00,
2013-02-01 10:34:00,5.6,-3.0,30.11,North,352,0.0,0.0,70,0.00,,,0.00,TxWx,2013-02-01 16:34:00,
2013-02-01 10:39:00,5.4,-4.0,30.11,North,352,0.0,0.0,69,0.00,,,0.00,TxWx,2013-02-01 16:39:00,
2013-02-01 10:45:00,5.2,-4.0,30.12,North,352,0.0,0.0,69,0.00,,,0.00,TxWx,2013-02-01 16:45:00,
2013-02-01 10:50:00,5.5,-3.0,30.12,North,352,0.0,0.0,69,0.00,,,0.00,TxWx,2013-02-01 16:50:00,
2013-02-01 10:55:00,6.0,-3.0,30.11,North,353,0.0,0.0,70,0.00,,,0.00,TxWx,2013-02-01 16:55:00,
2013-02-01 11:00:00,6.0,-3.0,30.11,North,352,0.0,0.0,69,0.00,,,0.00,TxWx,2013-02-01 17:00:00,
2013-02-01 11:05:00,5.6,-3.0,30.11,North,353,0.0,0.0,68,0.00,,,0.00,TxWx,2013-02-01 17:05:00,
2013-02-01 11:10:00,6.1,-3.0,30.11,North,353,0.0,0.0,70,0.00,,,0.00,TxWx,2013-02-01 17:10:00,
2013-02-01 11:15:00,6.3,-3.0,30.11,North,351,0.0,0.0,69,0.00,,,0.00,TxWx,2013-02-01 17:15:00,
2013-02-01 11:20:00,6.7,-2.0,30.11,North,353,0.0,0.0,69,0.00,,,0.00,TxWx,2013-02-01 17:20:00,
2013-02-01 11:25:00,6.3,-3.0,30.11,North,353,0.0,0.0,70,0.00,,,0.00,TxWx,2013-02-01 17:25:00,
2013-02-01 11:31:00,6.4,-3.0,30.11,North,353,0.0,0.0,71,0.00,,,0.00,TxWx,2013-02-01 17:31:00,
2013-02-01 11:36:00,6.2,-3.0,30.11,North,353,0.0,0.0,70,0.00,,,0.00,TxWx,2013-02-01 17:36:00,
2013-02-01 11:41:00,7.0,-2.0,30.11,North,353,0.0,0.0,71,0.00,,,0.00,TxWx,2013-02-01 17:41:00,
2013-02-01 11:46:00,7.2,-2.0,30.11,North,353,0.0,0.0,70,0.00,,,0.00,TxWx,2013-02-01 17:46:00,
2013-02-01 11:51:00,7.2,-2.0,30.10,North,353,0.0,0.0,69,0.00,,,0.00,TxWx,2013-02-01 17:51:00,
2013-02-01 11:57:00,7.2,-2.0,30.10,North,353,0.0,0.0,69,0.00,,,0.00,TxWx,2013-02-01 17:57:00,
2013-02-01 12:02:00,7.2,-2.0,30.10,North,352,0.0,0.0,68,0.00,,,0.00,TxWx,2013-02-01 18:02:00,
2013-02-01 12:07:00,7.5,-3.0,30.10,North,353,0.0,0.0,67,0.00,,,0.00,TxWx,2013-02-01 18:07:00,
2013-02-01 12:12:00,7.1,-2.0,30.10,North,353,0.0,0.0,68,0.00,,,0.00,TxWx,2013-02-01 18:12:00,
2013-02-01 12:18:00,7.6,-1.0,30.10,North,353,0.0,0.0,70,0.00,,,0.00,TxWx,2013-02-01 18:18:00,
2013-02-01 12:23:00,7.8,-1.0,30.10,NW,326,0.0,0.0,69,0.00,,,0.00,TxWx,2013-02-01 18:23:00,
2013-02-01 12:28:00,7.9,-1.0,30.10,North,353,0.0,0.0,69,0.00,,,0.00,TxWx,2013-02-01 18:28:00,
2013-02-01 12:33:00,8.3,-1.0,30.10,North,353,0.0,0.0,70,0.00,,,0.00,TxWx,2013-02-01 18:33:00,
2013-02-01 12:38:00,7.7,-1.0,30.09,North,353,0.0,0.0,69,0.00,,,0.00,TxWx,2013-02-01 18:38:00,
2013-02-01 12:43:00,8.4,-1.0,30.09,North,353,0.0,0.0,70,0.00,,,0.00,TxWx,2013-02-01 18:43:00,
2013-02-01 12:49:00,8.3,-1.0,30.09,North,353,0.0,0.0,68,0.00,,,0.00,TxWx,2013-02-01 18:49:00,
2013-02-01 12:54:00,8.7,-1.0,30.08,North,353,0.0,0.0,68,0.00,,,0.00,TxWx,2013-02-01 18:54:00,
2013-02-01 12:59:00,8.9,0.0,30.08,North,354,0.0,0.0,68,0.00,,,0.00,TxWx,2013-02-01 18:59:00,
2013-02-01 13:04:00,8.8,0.0,30.08,NW,315,0.0,0.0,68,0.00,,,0.00,TxWx,2013-02-01 19:04:00,
2013-02-01 13:09:00,9.2,0.0,30.08,North,353,0.0,0.0,70,0.00,,,0.00,TxWx,2013-02-01 19:09:00,
2013-02-01 13:14:00,9.5,-1.0,30.08,North,353,0.0,0.0,68,0.00,,,0.00,TxWx,2013-02-01 19:14:00,
2013-02-01 13:20:00,9.3,-1.0,30.08,North,353,0.0,0.0,67,0.00,,,0.00,TxWx,2013-02-01 19:20:00,
2013-02-01 13:25:00,9.2,-1.0,30.08,North,353,0.0,0.0,66,0.00,,,0.00,TxWx,2013-02-01 19:25:00,
2013-02-01 13:30:00,9.8,0.0,30.08,North,352,0.0,0.0,68,0.00,,,0.00,TxWx,2013-02-01 19:30:00,
2013-02-01 13:35:00,10.3,0.0,30.08,North,356,0.0,0.0,67,0.00,,,0.00,TxWx,2013-02-01 19:35:00,
2013-02-01 13:40:00,9.7,0.0,30.08,North,353,0.0,0.0,65,0.00,,,0.00,TxWx,2013-02-01 19:40:00,
2013-02-01 13:45:00,10.3,-1.0,30.07,NW,313,0.0,0.0,64,0.00,,,0.00,TxWx,2013-02-01 19:45:00,
2013-02-01 13:51:00,10.5,1.0,30.07,NE,34,0.0,0.0,65,0.00,,,0.00,TxWx,2013-02-01 19:51:00,
2013-02-01 13:56:00,10.1,-1.0,30.07,North,353,0.0,0.0,65,0.00,,,0.00,TxWx,2013-02-01 19:56:00,
2013-02-01 14:01:00,11.4,1.0,30.07,NW,314,0.0,0.0,66,0.00,,,0.00,TxWx,2013-02-01 20:01:00,
2013-02-01 14:06:00,10.9,0.0,30.07,North,354,0.0,0.0,63,0.00,,,0.00,TxWx,2013-02-01 20:06:00,
2013-02-01 14:11:00,11.2,0.0,30.07,North,353,0.0,0.0,64,0.00,,,0.00,TxWx,2013-02-01 20:11:00,
2013-02-01 14:16:00,10.9,0.0,30.07,North,353,0.0,0.0,63,0.00,,,0.00,TxWx,2013-02-01 20:16:00,
2013-02-01 14:21:00,11.0,0.0,30.07,North,354,0.0,0.0,62,0.00,,,0.00,TxWx,2013-02-01 20:21:00,
2013-02-01 14:26:00,10.8,0.0,30.07,North,353,0.0,0.0,63,0.00,,,0.00,TxWx,2013-02-01 20:26:00,
2013-02-01 14:31:00,11.6,1.0,30.07,North,354,0.0,0.0,64,0.00,,,0.00,TxWx,2013-02-01 20:31:00,
2013-02-01 14:37:00,11.6,1.0,30.07,North,354,0.0,0.0,63,0.00,,,0.00,TxWx,2013-02-01 20:37:00,
2013-02-01 14:42:00,11.0,-1.0,30.07,North,354,0.0,0.0,62,0.00,,,0.00,TxWx,2013-02-01 20:42:00,
2013-02-01 14:47:00,12.0,0.0,30.07,North,354,0.0,0.0,62,0.00,,,0.00,TxWx,2013-02-01 20:47:00,
2013-02-01 14:52:00,12.1,0.0,30.07,North,354,0.0,0.0,62,0.00,,,0.00,TxWx,2013-02-01 20:52:00,
2013-02-01 14:58:00,11.8,0.0,30.07,North,354,0.0,0.0,62,0.00,,,0.00,TxWx,2013-02-01 20:58:00,
2013-02-01 15:05:00,11.6,1.0,30.06,North,354,0.0,0.0,63,0.00,,,0.00,TxWx,2013-02-01 21:05:00,
2013-02-01 15:11:00,11.9,0.0,30.06,North,354,0.0,0.0,62,0.00,,,0.00,TxWx,2013-02-01 21:11:00,
2013-02-01 15:16:00,11.7,0.0,30.06,North,354,0.0,0.0,62,0.00,,,0.00,TxWx,2013-02-01 21:16:00,
2013-02-01 15:21:00,11.8,0.0,30.06,North,354,0.0,0.0,62,0.00,,,0.00,TxWx,2013-02-01 21:21:00,
2013-02-01 15:26:00,12.0,0.0,30.06,North,353,0.0,0.0,62,0.00,,,0.00,TxWx,2013-02-01 21:26:00,
2013-02-01 15:32:00,12.0,0.0,30.06,North,352,0.0,0.0,62,0.00,,,0.00,TxWx,2013-02-01 21:32:00,
2013-02-01 15:37:00,11.9,0.0,30.06,North,354,0.0,0.0,62,0.00,,,0.00,TxWx,2013-02-01 21:37:00,
2013-02-01 15:42:00,11.9,1.0,30.06,North,354,0.0,0.0,63,0.00,,,0.00,TxWx,2013-02-01 21:42:00,
2013-02-01 15:47:00,12.4,1.0,30.06,North,353,0.0,0.0,64,0.00,,,0.00,TxWx,2013-02-01 21:47:00,
2013-02-01 15:53:00,12.2,1.0,30.06,North,354,0.0,0.0,63,0.00,,,0.00,TxWx,2013-02-01 21:53:00,
2013-02-01 15:58:00,12.6,2.0,30.05,North,354,0.0,0.0,65,0.00,,,0.00,TxWx,2013-02-01 21:58:00,
2013-02-01 16:06:00,12.1,1.0,30.05,North,353,0.0,0.0,64,0.00,,,0.00,TxWx,2013-02-01 22:06:00,
2013-02-01 16:11:00,12.4,1.0,30.05,North,353,0.0,0.0,64,0.00,,,0.00,TxWx,2013-02-01 22:11:00,
2013-02-01 16:16:00,12.2,1.0,30.05,North,354,0.0,0.0,65,0.00,,,0.00,TxWx,2013-02-01 22:16:00,
2013-02-01 16:22:00,12.1,1.0,30.05,North,353,0.0,0.0,65,0.00,,,0.00,TxWx,2013-02-01 22:22:00,
2013-02-01 16:27:00,11.8,2.0,30.05,North,353,0.0,0.0,66,0.00,,,0.00,TxWx,2013-02-01 22:27:00,
2013-02-01 16:32:00,11.8,2.0,30.05,North,353,0.0,0.0,65,0.00,,,0.00,TxWx,2013-02-01 22:32:00,
2013-02-01 16:37:00,11.6,2.0,30.05,North,354,0.0,0.0,66,0.00,,,0.00,TxWx,2013-02-01 22:37:00,
2013-02-01 16:42:00,11.5,2.0,30.05,North,354,0.0,0.0,66,0.00,,,0.00,TxWx,2013-02-01 22:42:00,
2013-02-01 16:47:00,11.4,1.0,30.05,North,354,0.0,0.0,67,0.00,,,0.00,TxWx,2013-02-01 22:47:00,
2013-02-01 16:52:00,11.3,1.0,30.05,North,353,0.0,0.0,67,0.00,,,0.00,TxWx,2013-02-01 22:52:00,
2013-02-01 16:57:00,11.3,1.0,30.05,North,355,0.0,0.0,68,0.00,,,0.00,TxWx,2013-02-01 22:57:00,
2013-02-01 17:03:00,11.2,2.0,30.05,North,354,0.0,0.0,69,0.00,,,0.00,TxWx,2013-02-01 23:03:00,
2013-02-01 17:08:00,11.2,2.0,30.05,North,354,0.0,0.0,69,0.00,,,0.00,TxWx,2013-02-01 23:08:00,
2013-02-01 17:13:00,11.3,2.0,30.05,North,354,0.0,0.0,70,0.00,,,0.00,TxWx,2013-02-01 23:13:00,
2013-02-01 17:18:00,11.1,2.0,30.04,North,354,0.0,0.0,70,0.00,,,0.00,TxWx,2013-02-01 23:18:00,
2013-02-01 17:23:00,11.0,2.0,30.04,North,355,0.0,0.0,70,0.00,,,0.00,TxWx,2013-02-01 23:23:00,
2013-02-01 17:28:00,11.0,2.0,30.04,North,355,0.0,0.0,71,0.00,,,0.00,TxWx,2013-02-01 23:28:00,
2013-02-01 17:33:00,10.9,2.0,30.04,North,355,0.0,0.0,71,0.00,,,0.00,TxWx,2013-02-01 23:33:00,
2013-02-01 17:38:00,10.9,2.0,30.04,North,356,0.0,0.0,71,0.00,,,0.00,TxWx,2013-02-01 23:38:00,
2013-02-01 17:43:00,10.9,3.0,30.04,North,356,0.0,0.0,72,0.00,,,0.00,TxWx,2013-02-01 23:43:00,
2013-02-01 17:48:00,10.9,3.0,30.04,North,355,0.0,0.0,72,0.00,,,0.00,TxWx,2013-02-01 23:48:00,
2013-02-01 17:53:00,11.0,3.0,30.04,North,355,0.0,0.0,72,0.00,,,0.00,TxWx,2013-02-01 23:53:00,
2013-02-01 17:59:00,11.0,3.0,30.04,North,356,0.0,0.0,72,0.00,,,0.00,TxWx,2013-02-01 23:59:00,
2013-02-01 18:04:00,10.9,3.0,30.04,NW,313,0.0,0.0,72,0.00,,,0.00,TxWx,2013-02-02 00:04:00,
2013-02-01 18:09:00,10.9,3.0,30.04,North,355,0.0,0.0,72,0.00,,,0.00,TxWx,2013-02-02 00:09:00,
2013-02-01 18:14:00,10.9,3.0,30.04,North,355,0.0,0.0,72,0.00,,,0.00,TxWx,2013-02-02 00:14:00,
2013-02-01 18:19:00,10.8,3.0,30.04,North,355,0.0,0.0,72,0.00,,,0.00,TxWx,2013-02-02 00:19:00,
2013-02-01 18:24:00,10.7,3.0,30.04,North,355,0.0,0.0,73,0.00,,,0.00,TxWx,2013-02-02 00:24:00,
2013-02-01 18:29:00,10.7,3.0,30.04,North,354,0.0,0.0,73,0.00,,,0.00,TxWx,2013-02-02 00:29:00,
2013-02-01 18:35:00,10.6,3.0,30.04,North,355,0.0,0.0,73,0.00,,,0.00,TxWx,2013-02-02 00:35:00,
2013-02-01 18:40:00,10.5,2.0,30.04,North,354,0.0,0.0,73,0.00,,,0.00,TxWx,2013-02-02 00:40:00,
2013-02-01 18:45:00,10.4,2.0,30.04,North,354,0.0,0.0,73,0.00,,,0.00,TxWx,2013-02-02 00:45:00,
2013-02-01 18:50:00,10.3,2.0,30.04,North,353,0.0,0.0,74,0.00,,,0.00,TxWx,2013-02-02 00:50:00,
2013-02-01 18:55:00,10.3,2.0,30.04,North,354,0.0,0.0,74,0.00,,,0.00,TxWx,2013-02-02 00:55:00,
2013-02-01 19:00:00,10.3,2.0,30.03,North,354,0.0,0.0,74,0.00,,,0.00,TxWx,2013-02-02 01:00:00,
2013-02-01 19:06:00,10.4,2.0,30.03,North,352,0.0,0.0,74,0.00,,,0.00,TxWx,2013-02-02 01:06:00,
2013-02-01 19:11:00,10.5,2.0,30.03,North,354,0.0,0.0,74,0.00,,,0.00,TxWx,2013-02-02 01:11:00,
2013-02-01 19:16:00,10.7,3.0,30.03,North,353,0.0,0.0,74,0.00,,,0.00,TxWx,2013-02-02 01:16:00,
2013-02-01 19:22:00,10.9,3.0,30.03,North,354,0.0,0.0,75,0.00,,,0.00,TxWx,2013-02-02 01:22:00,
2013-02-01 19:27:00,10.9,3.0,30.03,North,354,0.0,0.0,75,0.00,,,0.00,TxWx,2013-02-02 01:27:00,
2013-02-01 19:32:00,10.9,3.0,30.03,North,354,0.0,0.0,75,0.00,,,0.00,TxWx,2013-02-02 01:32:00,
2013-02-01 19:37:00,11.0,3.0,30.03,North,354,0.0,0.0,75,0.00,,,0.00,TxWx,2013-02-02 01:37:00,
2013-02-01 19:42:00,11.1,4.0,30.02,North,353,0.0,0.0,75,0.00,,,0.00,TxWx,2013-02-02 01:42:00,
2013-02-01 19:48:00,11.1,4.0,30.02,North,351,0.0,0.0,75,0.00,,,0.00,TxWx,2013-02-02 01:48:00,
2013-02-01 19:53:00,11.2,4.0,30.02,North,353,0.0,0.0,75,0.00,,,0.00,TxWx,2013-02-02 01:53:00,
2013-02-01 19:58:00,11.4,4.0,30.02,North,353,0.0,0.0,75,0.00,,,0.00,TxWx,2013-02-02 01:58:00,
2013-02-01 20:03:00,11.5,5.0,30.02,North,353,0.0,0.0,76,0.00,,,0.00,TxWx,2013-02-02 02:03:00,
2013-02-01 20:08:00,11.7,5.0,30.01,North,352,0.0,0.0,76,0.00,,,0.00,TxWx,2013-02-02 02:08:00,
2013-02-01 20:14:00,11.9,5.0,30.01,North,353,0.0,0.0,76,0.00,,,0.00,TxWx,2013-02-02 02:14:00,
2013-02-01 20:19:00,12.0,5.0,30.01,North,352,0.0,0.0,76,0.00,,,0.00,TxWx,2013-02-02 02:19:00,
2013-02-01 20:24:00,12.2,5.0,30.01,North,352,0.0,0.0,76,0.00,,,0.00,TxWx,2013-02-02 02:24:00,
2013-02-01 20:29:00,12.5,5.0,30.00,North,353,0.0,0.0,76,0.00,,,0.00,TxWx,2013-02-02 02:29:00,
2013-02-01 20:35:00,12.7,6.0,30.00,North,354,0.0,0.0,75,0.00,,,0.00,TxWx,2013-02-02 02:35:00,
2013-02-01 20:40:00,12.8,5.0,30.00,North,354,0.0,0.0,75,0.00,,,0.00,TxWx,2013-02-02 02:40:00,
2013-02-01 20:45:00,13.0,5.0,30.00,North,354,0.0,0.0,75,0.00,,,0.00,TxWx,2013-02-02 02:45:00,
2013-02-01 20:50:00,13.0,5.0,30.01,North,352,0.0,0.0,75,0.00,,,0.00,TxWx,2013-02-02 02:50:00,
2013-02-01 20:56:00,13.0,5.0,30.00,North,353,0.0,0.0,74,0.00,,,0.00,TxWx,2013-02-02 02:56:00,
2013-02-01 21:01:00,13.1,5.0,30.00,North,353,0.0,0.0,74,0.00,,,0.00,TxWx,2013-02-02 03:01:00,
2013-02-01 21:06:00,13.1,5.0,30.00,North,353,0.0,0.0,74,0.00,,,0.00,TxWx,2013-02-02 03:06:00,
2013-02-01 21:11:00,13.2,5.0,30.00,North,353,0.0,0.0,74,0.00,,,0.00,TxWx,2013-02-02 03:11:00,
2013-02-01 21:16:00,13.2,5.0,30.00,North,353,0.0,0.0,75,0.00,,,0.00,TxWx,2013-02-02 03:16:00,
2013-02-01 21:21:00,13.3,5.0,29.99,North,352,0.0,0.0,75,0.00,,,0.00,TxWx,2013-02-02 03:21:00,
2013-02-01 21:26:00,13.3,5.0,30.00,North,352,0.0,0.0,75,0.00,,,0.00,TxWx,2013-02-02 03:26:00,
2013-02-01 21:31:00,13.2,5.0,29.99,North,353,0.0,0.0,75,0.00,,,0.00,TxWx,2013-02-02 03:31:00,
2013-02-01 21:36:00,13.2,5.0,29.99,North,351,0.0,0.0,75,0.00,,,0.00,TxWx,2013-02-02 03:36:00,
2013-02-01 21:42:00,13.1,6.0,29.99,North,353,0.0,0.0,75,0.00,,,0.00,TxWx,2013-02-02 03:42:00,
2013-02-01 21:47:00,13.1,6.0,29.99,North,353,0.0,0.0,75,0.00,,,0.00,TxWx,2013-02-02 03:47:00,
2013-02-01 21:52:00,13.3,6.0,30.00,North,352,0.0,0.0,75,0.00,,,0.00,TxWx,2013-02-02 03:52:00,
2013-02-01 21:57:00,13.3,6.0,29.99,North,353,0.0,0.0,75,0.00,,,0.00,TxWx,2013-02-02 03:57:00,
2013-02-01 22:02:00,13.4,6.0,29.99,North,353,0.0,0.0,75,0.00,,,0.00,TxWx,2013-02-02 04:02:00,
2013-02-01 22:07:00,13.5,6.0,29.99,North,352,0.0,0.0,75,0.00,,,0.00,TxWx,2013-02-02 04:07:00,
2013-02-01 22:12:00,13.6,7.0,29.99,North,354,0.0,0.0,75,0.00,,,0.00,TxWx,2013-02-02 04:12:00,
2013-02-01 22:17:00,13.7,7.0,29.99,North,354,0.0,0.0,75,0.00,,,0.00,TxWx,2013-02-02 04:17:00,
2013-02-01 22:23:00,13.8,7.0,29.99,North,353,0.0,0.0,75,0.00,,,0.00,TxWx,2013-02-02 04:23:00,
2013-02-01 22:28:00,13.8,7.0,29.98,North,353,0.0,0.0,75,0.00,,,0.00,TxWx,2013-02-02 04:28:00,
2013-02-01 22:33:00,13.9,7.0,29.99,North,354,0.0,0.0,75,0.00,,,0.00,TxWx,2013-02-02 04:33:00,
2013-02-01 22:38:00,14.1,7.0,29.99,ENE,60,0.0,0.0,76,0.00,,,0.00,TxWx,2013-02-02 04:38:00,
2013-02-01 22:43:00,14.2,7.0,29.99,North,352,0.0,0.0,76,0.00,,,0.00,TxWx,2013-02-02 04:43:00,
2013-02-01 22:48:00,14.2,7.0,29.99,North,352,0.0,0.0,76,0.00,,,0.00,TxWx,2013-02-02 04:48:00,
2013-02-01 22:54:00,14.3,7.0,29.98,North,353,0.0,0.0,77,0.00,,,0.00,TxWx,2013-02-02 04:54:00,
2013-02-01 22:59:00,14.2,7.0,29.98,North,353,0.0,0.0,77,0.00,,,0.00,TxWx,2013-02-02 04:59:00,
2013-02-01 23:00:00,14.2,7.0,29.98,North,353,0.0,0.0,78,0.00,,,0.00,TxWx,2013-02-02 05:00:00,
2013-02-01 23:05:00,14.2,8.0,29.98,North,353,0.0,0.0,79,0.00,,,0.00,TxWx,2013-02-02 05:05:00,
2013-02-01 23:06:00,14.3,8.0,29.98,North,353,0.0,0.0,79,0.00,,,0.00,TxWx,2013-02-02 05:06:00,
2013-02-01 23:07:00,14.3,8.0,29.98,North,354,0.0,0.0,79,0.00,,,0.00,TxWx,2013-02-02 05:07:00,
2013-02-01 23:12:00,14.2,8.0,29.98,North,352,0.0,0.0,80,0.00,,,0.00,TxWx,2013-02-02 05:12:00,
2013-02-01 23:18:00,14.2,8.0,29.98,North,351,0.0,0.0,81,0.00,,,0.00,TxWx,2013-02-02 05:18:00,
2013-02-01 23:23:00,14.3,8.0,29.98,North,352,0.0,0.0,82,0.00,,,0.00,TxWx,2013-02-02 05:23:00,
2013-02-01 23:28:00,14.2,9.0,29.98,North,352,0.0,0.0,83,0.00,,,0.00,TxWx,2013-02-02 05:28:00,
2013-02-01 23:34:00,14.2,9.0,29.98,North,353,0.0,0.0,83,0.00,,,0.00,TxWx,2013-02-02 05:34:00,
2013-02-01 23:39:00,14.1,9.0,29.98,North,353,0.0,0.0,84,0.00,,,0.00,TxWx,2013-02-02 05:39:00,
2013-02-01 23:44:00,14.2,9.0,29.98,North,353,0.0,0.0,85,0.00,,,0.00,TxWx,2013-02-02 05:44:00,
2013-02-01 23:49:00,14.2,9.0,29.98,North,352,0.0,0.0,86,0.00,,,0.00,TxWx,2013-02-02 05:49:00,
2013-02-01 23:54:00,14.2,10.0,29.98,North,353,0.0,0.0,86,0.00,,,0.00,TxWx,2013-02-02 05:54:00,
2013-02-01 23:59:00,14.2,10.0,29.98,North,353,0.0,0.0,87,0.00,,,0.00,TxWx,2013-02-02 05:59:00,